EW9579 Weather Reports


time (UTC)temp
C
wind
direction
speed
KPH
gust
KPH
rain 1hr
cm
rain 24hr
cm
rain mn
cm
humidity
%
barometer
mb
20260906140322 20 80 1.6 3.2 0.00 0.00 0.00 96 1020.7
20260906135819 20 27 0.0 1.6 0.00 0.00 0.00 96 1020.6
20260906135314 20 18 0.0 1.6 0.00 0.00 0.00 96 1020.6
20260906134809 19 17 0.0 3.2 0.00 0.00 0.00 97 1020.6
20260906134304 19 15 0.0 0.0 0.00 0.00 0.00 97 1020.6
20260906133800 19 37 1.6 3.2 0.00 0.00 0.00 97 1020.7
20260906133255 18 3 0.0 0.0 0.00 0.00 0.00 98 1020.7
20260906132751 18 4 0.0 1.6 0.00 0.00 0.00 98 1020.7
20260906132246 18 5 0.0 1.6 0.00 0.00 0.00 98 1020.7
20260906131742 18 19 0.0 1.6 0.00 0.00 0.00 98 1020.5
20260906131236 18 21 1.6 1.6 0.00 0.00 0.00 98 1020.7
20260906130732 18 358 0.0 1.6 0.00 0.00 0.00 98 1020.6
20260906130227 18 17 0.0 0.0 0.00 0.00 0.00 98 1020.5
20260906125725 17 20 0.0 0.0 0.00 0.00 0.00 98 1020.6
20260906125223 17 19 0.0 0.0 0.00 0.00 0.00 98 1020.3
20260906124718 17 15 0.0 0.0 0.00 0.00 0.00 98 1020.1
20260906124214 17 1 1.6 1.6 0.00 0.00 0.00 98 1020.2
20260906123712 17 17 0.0 0.0 0.00 0.00 0.00 98 1020.1
20260906123208 17 16 0.0 0.0 0.00 0.00 0.00 98 1020.1
20260906122707 17 24 0.0 1.6 0.00 0.00 0.00 98 1020.1
20260906122203 17 23 0.0 1.6 0.00 0.00 0.00 98 1020.4
20260906121659 17 11 0.0 0.0 0.00 0.00 0.00 98 1020.1
20260906121155 16 8 0.0 0.0 0.00 0.00 0.00 98 1020.0
20260906120651 16 8 0.0 0.0 0.00 0.00 0.00 98 1019.6
20260906120148 16 8 0.0 0.0 0.00 0.00 0.00 98 1019.6
20260906115648 16 8 0.0 0.0 0.00 0.00 0.00 98 1019.6
20260906115143 16 8 0.0 0.0 0.00 0.00 0.00 98 1019.6
20260906114642 16 8 0.0 0.0 0.00 0.00 0.00 98 1019.7
20260906114138 16 8 0.0 0.0 0.00 0.00 0.00 98 1019.5
20260906113637 16 8 0.0 0.0 0.00 0.00 0.00 98 1019.4
20260906113132 16 8 0.0 0.0 0.00 0.00 0.00 98 1019.2
20260906112631 16 8 0.0 0.0 0.00 0.00 0.00 98 1019.3
20260906112129 16 8 0.0 0.0 0.00 0.00 0.00 98 1019.1
20260906111628 16 8 0.0 0.0 0.00 0.00 0.00 98 1019.0
20260906111123 16 8 0.0 0.0 0.00 0.00 0.00 98 1019.1
20260906110618 16 8 0.0 0.0 0.00 0.00 0.00 98 1019.0
20260906110118 16 8 0.0 0.0 0.00 0.00 0.00 98 1019.0
20260906105612 17 7 0.0 0.0 0.00 0.00 0.00 98 1018.9
20260906105108 17 7 0.0 0.0 0.00 0.00 0.00 98 1018.9
20260906104608 17 9 0.0 1.6 0.00 0.00 0.00 98 1019.0
20260906104101 17 11 0.0 0.0 0.00 0.00 0.00 98 1019.1
20260906103600 17 11 0.0 0.0 0.00 0.00 0.00 98 1019.0
20260906103055 17 15 0.0 0.0 0.00 0.00 0.00 98 1019.3
20260906102555 17 17 0.0 0.0 0.00 0.00 0.00 98 1019.2
20260906102050 17 2 0.0 0.0 0.00 0.00 0.00 98 1019.2
20260906101544 17 21 0.0 0.0 0.00 0.00 0.00 98 1018.9
20260906101039 17 23 0.0 0.0 0.00 0.00 0.00 98 1018.9
20260906100536 17 22 0.0 0.0 0.00 0.00 0.00 98 1019.0
20260906100035 16 22 0.0 0.0 0.00 0.00 0.00 98 1019.0
20260906095530 16 22 0.0 0.0 0.00 0.00 0.00 98 1018.9
20260906095025 16 22 0.0 0.0 0.00 0.00 0.00 98 1018.8
20260906094519 16 22 0.0 0.0 0.00 0.00 0.00 98 1018.8
20260906094015 16 22 0.0 0.0 0.00 0.00 0.00 98 1018.7
20260906093511 16 22 0.0 0.0 0.00 0.00 0.00 97 1018.7
20260906093011 16 23 0.0 0.0 0.00 0.00 0.00 97 1018.8
20260906092510 16 22 0.0 0.0 0.00 0.00 0.00 97 1018.7
20260906092006 16 22 0.0 0.0 0.00 0.00 0.00 97 1018.8
20260906091501 16 22 0.0 0.0 0.00 0.00 0.00 97 1018.7
20260906090958 16 22 0.0 0.0 0.00 0.00 0.00 97 1018.6
20260906090453 16 23 0.0 0.0 0.00 0.00 0.00 97 1018.5
20260906085953 16 22 0.0 0.0 0.00 0.00 0.00 97 1018.6
20260906085452 16 22 0.0 0.0 0.00 0.00 0.00 97 1018.4
20260906084951 16 22 0.0 0.0 0.00 0.00 0.00 97 1018.8
20260906084446 16 22 0.0 0.0 0.00 0.00 0.00 97 1018.6
20260906083945 16 22 0.0 0.0 0.00 0.00 0.00 97 1018.5
20260906083441 16 22 0.0 0.0 0.00 0.00 0.00 97 1018.6
20260906082940 16 23 0.0 0.0 0.00 0.00 0.00 97 1018.4
20260906082436 16 22 0.0 0.0 0.00 0.00 0.00 97 1018.6
20260906081931 17 22 0.0 0.0 0.00 0.00 0.00 97 1018.7
20260906081426 17 22 0.0 0.0 0.00 0.00 0.00 97 1018.6
20260906080923 17 22 0.0 0.0 0.00 0.00 0.00 97 1018.5
20260906080420 17 22 0.0 0.0 0.00 0.00 0.00 97 1018.7
20260906075919 17 22 0.0 0.0 0.00 0.00 0.00 97 1018.9
20260906075414 17 22 0.0 0.0 0.00 0.00 0.00 97 1018.6
20260906074909 17 22 0.0 0.0 0.00 0.00 0.00 97 1018.8
20260906074408 17 22 0.0 0.0 0.00 0.00 0.00 97 1018.8
20260906073907 17 22 0.0 0.0 0.00 0.00 0.00 97 1018.8
20260906073402 17 22 0.0 0.0 0.00 0.00 0.00 97 1018.8
20260906072859 17 22 0.0 0.0 0.00 0.00 0.00 96 1018.7
20260906072354 17 22 0.0 0.0 0.00 0.00 0.00 96 1018.8
20260906071850 17 22 0.0 0.0 0.00 0.00 0.00 96 1018.8
20260906071345 17 22 0.0 0.0 0.00 0.00 0.00 97 1018.9
20260906070841 17 22 0.0 0.0 0.00 0.00 0.00 96 1019.0
20260906070337 17 22 0.0 0.0 0.00 0.00 0.00 96 1018.9
20260906065832 17 22 0.0 0.0 0.00 0.00 0.00 96 1019.1
20260906065326 17 23 0.0 0.0 0.00 0.00 0.00 96 1018.9
20260906064822 17 23 0.0 0.0 0.00 0.00 0.00 96 1019.0
20260906064319 17 23 0.0 0.0 0.00 0.00 0.00 96 1018.9
20260906063818 17 23 0.0 0.0 0.00 0.00 0.00 96 1018.8
20260906063314 17 23 0.0 0.0 0.00 0.00 0.00 96 1018.8
20260906062809 17 23 0.0 0.0 0.00 0.00 0.00 96 1019.0
20260906062308 18 23 0.0 0.0 0.00 0.00 0.00 96 1019.1
20260906061803 18 23 0.0 0.0 0.00 0.00 0.00 96 1019.2
20260906061300 18 23 0.0 0.0 0.00 0.00 0.00 96 1019.1
20260906060755 18 21 0.0 0.0 0.00 0.00 0.00 95 1019.2
20260906060252 18 21 0.0 0.0 0.00 0.00 0.00 95 1019.2
20260906055748 18 21 0.0 0.0 0.00 0.00 0.00 95 1019.1
20260906055243 18 21 0.0 0.0 0.00 0.00 0.00 95 1019.1
20260906054738 18 21 0.0 0.0 0.00 0.00 0.00 95 1018.8
20260906054233 18 22 0.0 1.6 0.00 0.00 0.00 95 1018.8
20260906053730 18 358 0.0 1.6 0.00 0.00 0.00 95 1018.8
20260906053225 18 12 0.0 0.0 0.00 0.00 0.00 95 1018.7
20260906052720 19 12 0.0 0.0 0.00 0.00 0.00 94 1018.7
20260906052217 19 16 0.0 1.6 0.00 0.00 0.00 94 1018.5
20260906051714 19 25 0.0 0.0 0.00 0.00 0.00 94 1018.5
20260906051213 19 26 0.0 0.0 0.00 0.00 0.00 94 1018.7
20260906050708 19 0 0.0 1.6 0.00 0.00 0.00 94 1018.8
20260906050203 19 16 0.0 0.0 0.00 0.00 0.00 94 1018.7
20260906045701 19 24 0.0 1.6 0.00 0.03 0.03 94 1018.4
20260906045156 19 21 0.0 0.0 0.00 0.03 0.03 93 1018.5
20260906044653 20 16 0.0 0.0 0.00 0.03 0.03 93 1018.2
20260906044148 20 16 0.0 0.0 0.00 0.03 0.03 93 1018.4
20260906043644 20 7 0.0 1.6 0.00 0.03 0.03 93 1018.3
20260906043139 20 15 0.0 0.0 0.00 0.03 0.03 92 1018.1
20260906042639 20 8 0.0 0.0 0.00 0.03 0.03 92 1018.1
20260906042133 20 349 0.0 0.0 0.00 0.03 0.03 91 1018.4
20260906041630 20 1 1.6 1.6 0.00 0.03 0.03 91 1018.2
20260906041130 20 10 0.0 1.6 0.00 0.03 0.03 91 1018.2
20260906040625 20 10 0.0 0.0 0.00 0.03 0.03 91 1018.2
20260906040120 20 349 0.0 1.6 0.00 0.03 0.03 90 1017.9
20260906035615 20 2 0.0 1.6 0.00 0.03 0.03 90 1018.0
20260906035111 20 3 0.0 0.0 0.00 0.03 0.03 89 1018.0
20260906034606 20 1 0.0 1.6 0.00 0.03 0.03 89 1018.0
20260906034101 20 20 1.6 1.6 0.00 0.03 0.03 89 1017.9
20260906033556 20 18 0.0 3.2 0.00 0.03 0.03 89 1018.0
20260906033051 20 356 0.0 1.6 0.00 0.03 0.03 89 1017.9
20260906032548 20 19 0.0 0.0 0.00 0.03 0.03 89 1017.9
20260906032047 20 21 0.0 1.6 0.00 0.03 0.03 88 1017.9
20260906031543 21 12 0.0 1.6 0.00 0.03 0.03 88 1017.9
20260906031038 21 12 0.0 1.6 0.00 0.03 0.03 88 1017.7
20260906030538 21 1 1.6 3.2 0.00 0.03 0.03 88 1017.9
20260906030037 21 34 1.6 3.2 0.00 0.03 0.03 88 1017.7
20260906025537 21 359 0.0 0.0 0.00 0.03 0.03 88 1017.5
20260906025036 21 21 0.0 1.6 0.00 0.03 0.03 88 1017.5
20260906024531 21 116 0.0 1.6 0.00 0.03 0.03 89 1017.7
20260906024031 21 4 0.0 1.6 0.00 0.03 0.03 88 1017.6
20260906023527 21 139 3.2 3.2 0.00 0.03 0.03 88 1017.4
20260906023022 21 18 0.0 12.9 0.00 0.03 0.03 89 1017.2
20260906022517 21 113 1.6 3.2 0.00 0.03 0.03 89 1016.9
20260906022013 21 112 3.2 3.2 0.00 0.03 0.03 88 1017.0
20260906021509 21 87 3.2 4.8 0.00 0.03 0.03 89 1017.0
20260906021008 21 20 1.6 11.3 0.00 0.03 0.03 89 1017.0
20260906020507 21 89 3.2 9.7 0.00 0.03 0.03 89 1016.8
20260906020007 21 29 0.0 3.2 0.00 0.03 0.03 88 1016.8
20260906015506 21 17 1.6 3.2 0.00 0.03 0.03 88 1016.8
20260906015007 21 3 0.0 9.7 0.00 0.03 0.03 88 1016.9
20260906014501 22 21 1.6 3.2 0.00 0.03 0.03 87 1016.6
20260906013957 22 189 3.2 4.8 0.00 0.03 0.03 87 1016.8
20260906013452 22 35 1.6 3.2 0.00 0.03 0.03 86 1017.0
20260906012948 22 16 3.2 6.4 0.00 0.03 0.03 86 1016.8
20260906012442 22 88 3.2 4.8 0.00 0.03 0.03 86 1016.8
20260906011942 22 14 0.0 3.2 0.00 0.03 0.03 85 1016.7
20260906011437 23 97 0.0 3.2 0.00 0.03 0.03 84 1016.9
20260906010932 23 9 0.0 6.4 0.00 0.03 0.03 84 1016.9
20260906010428 23 25 3.2 4.8 0.00 0.03 0.03 84 1016.9
20260906005924 23 39 0.0 4.8 0.00 0.03 0.03 83 1016.8
20260906005423 23 4 0.0 0.0 0.00 0.03 0.03 82 1016.8
20260906004922 23 8 0.0 4.8 0.00 0.03 0.03 82 1016.8
20260906004416 23 140 1.6 9.7 0.00 0.03 0.03 81 1016.6
20260906003912 23 346 1.6 6.4 0.00 0.03 0.03 81 1016.7
20260906003407 24 14 3.2 9.7 0.00 0.03 0.03 81 1016.6
20260906002902 24 26 0.0 3.2 0.00 0.03 0.03 81 1016.5
20260906002401 25 77 1.6 4.8 0.00 0.03 0.03 81 1016.4
20260906001857 25 16 0.0 4.8 0.00 0.03 0.03 81 1016.5
20260906001354 25 48 1.6 4.8 0.00 0.03 0.03 80 1016.4
20260906000854 25 37 3.2 3.2 0.00 0.03 0.03 80 1016.4
20260906000355 25 15 1.6 4.8 0.00 0.03 0.03 78 1016.5
20260905235848 25 9 1.6 4.8 0.00 0.03 0.03 77 1016.4
20260905235342 26 22 3.2 11.3 0.00 0.03 0.03 76 1016.2
20260905234838 26 57 1.6 12.9 0.00 0.03 0.03 77 1016.3
20260905234333 26 33 6.4 6.4 0.00 0.03 0.03 76 1016.3
20260905233828 26 47 4.8 11.3 0.00 0.03 0.03 75 1016.3
20260905233323 26 10 0.0 1.6 0.00 0.03 0.03 75 1016.4
20260905232822 26 3 0.0 6.4 0.00 0.03 0.03 74 1016.3
20260905232319 26 33 6.4 11.3 0.00 0.03 0.03 73 1016.3
20260905231814 26 354 3.2 4.8 0.00 0.03 0.03 73 1016.4
20260905231309 27 259 4.8 11.3 0.00 0.03 0.03 72 1016.2
20260905230805 27 24 1.6 9.7 0.00 0.03 0.03 72 1016.1
20260905230303 27 7 3.2 9.7 0.00 0.03 0.03 73 1016.2
20260905225803 27 352 3.2 6.4 0.00 0.03 0.03 72 1016.1
20260905225258 27 54 3.2 4.8 0.00 0.03 0.03 71 1016.1
20260905224757 27 356 3.2 4.8 0.00 0.03 0.03 70 1015.8
20260905224253 27 20 1.6 4.8 0.00 0.03 0.03 71 1015.8
20260905223748 27 53 3.2 6.4 0.00 0.03 0.03 71 1015.8
20260905223246 27 75 3.2 4.8 0.00 0.03 0.03 70 1015.9
20260905222741 28 3 8.0 11.3 0.00 0.03 0.03 68 1016.1
20260905222240 27 290 3.2 4.8 0.00 0.03 0.03 69 1016.0
20260905221736 27 3 3.2 9.7 0.00 0.03 0.03 68 1016.1
20260905221233 28 331 3.2 9.7 0.00 0.03 0.03 69 1016.0
20260905220728 28 6 1.6 3.2 0.00 0.03 0.03 67 1015.8
20260905220224 28 27 0.0 1.6 0.00 0.03 0.03 69 1016.0
20260905215723 28 352 8.0 11.3 0.00 0.03 0.03 67 1015.9
20260905215219 28 354 0.0 4.8 0.00 0.03 0.03 67 1015.9
20260905214715 28 356 0.0 11.3 0.00 0.03 0.03 68 1015.7
20260905214210 27 356 0.0 3.2 0.00 0.03 0.03 69 1015.7
20260905213705 28 23 12.9 20.9 0.00 0.03 0.03 66 1015.6
20260905213201 27 25 0.0 1.6 0.00 0.03 0.03 71 1015.7
20260905212656 27 350 4.8 6.4 0.00 0.03 0.03 69 1015.7
20260905212155 27 27 6.4 9.7 0.00 0.03 0.03 69 1015.6
20260905211650 27 7 1.6 9.7 0.00 0.03 0.03 71 1015.7
20260905211146 28 55 1.6 9.7 0.00 0.03 0.03 69 1015.7
20260905210643 28 51 4.8 6.4 0.00 0.03 0.03 69 1015.7
20260905210142 28 343 1.6 3.2 0.00 0.03 0.03 69 1015.9
20260905205641 27 37 1.6 6.4 0.00 0.03 0.03 72 1015.9
20260905205136 27 9 0.0 3.2 0.00 0.03 0.03 71 1016.2
20260905204635 27 348 1.6 6.4 0.00 0.03 0.03 71 1016.2
20260905204131 27 38 0.0 3.2 0.00 0.03 0.03 73 1016.1
20260905203631 27 32 6.4 9.7 0.00 0.03 0.03 71 1016.2
20260905203126 28 340 0.0 4.8 0.00 0.03 0.03 70 1016.2
20260905202622 28 25 0.0 1.6 0.00 0.03 0.03 70 1016.1
20260905202117 28 39 3.2 6.4 0.00 0.03 0.03 70 1015.9
20260905201613 27 346 0.0 1.6 0.00 0.03 0.03 75 1016.2
20260905201112 27 359 0.0 1.6 0.00 0.03 0.03 74 1016.4
20260905200608 27 0 0.0 1.6 0.00 0.03 0.03 74 1016.2
20260905195601 26 5 1.6 3.2 0.00 0.03 0.03 79 1016.4
20260905195057 25 2 0.0 4.8 0.00 0.03 0.03 78 1016.2
20260905194556 25 16 0.0 1.6 0.00 0.03 0.03 80 1016.4
20260905194056 25 15 0.0 6.4 0.00 0.03 0.03 81 1016.4
20260905193551 25 135 1.6 11.3 0.00 0.03 0.03 80 1016.6
20260905193046 25 35 1.6 3.2 0.00 0.03 0.03 81 1016.3
20260905192541 25 23 1.6 1.6 0.00 0.03 0.03 81 1016.5
20260905192038 25 23 0.0 4.8 0.00 0.03 0.03 80 1016.5
20260905191536 25 104 1.6 4.8 0.00 0.03 0.03 81 1016.3
20260905191035 25 20 1.6 4.8 0.00 0.03 0.03 81 1016.3
20260905190533 25 9 0.0 3.2 0.00 0.03 0.03 82 1016.3
20260905190027 25 14 1.6 4.8 0.00 0.03 0.03 81 1016.4
20260905185521 25 13 3.2 9.7 0.00 0.03 0.03 81 1016.7
20260905185020 25 25 3.2 9.7 0.00 0.03 0.03 81 1016.7
20260905184515 25 345 0.0 4.8 0.00 0.03 0.03 82 1016.7
20260905184014 25 268 3.2 4.8 0.00 0.03 0.03 82 1016.8
20260905183514 25 21 4.8 6.4 0.00 0.03 0.03 83 1016.7
20260905183009 25 31 3.2 9.7 0.00 0.03 0.03 82 1016.5
20260905182508 25 58 1.6 4.8 0.00 0.03 0.03 83 1016.7
20260905182003 25 25 3.2 9.7 0.00 0.03 0.03 81 1016.6
20260905181458 25 13 1.6 4.8 0.00 0.03 0.03 82 1016.8
20260905180957 25 67 8.0 9.7 0.00 0.03 0.03 81 1016.8
20260905180458 25 24 3.2 3.2 0.00 0.03 0.03 82 1016.6
20260905175953 25 23 3.2 6.4 0.00 0.03 0.03 83 1016.7
20260905175453 25 0 0.0 6.4 0.00 0.03 0.03 82 1016.5
20260905174949 25 212 1.6 3.2 0.00 0.03 0.03 84 1016.7
20260905174449 25 20 4.8 9.7 0.00 0.03 0.03 83 1016.6
20260905173944 25 344 1.6 4.8 0.00 0.03 0.03 83 1016.7
20260905173441 25 17 0.0 1.6 0.00 0.03 0.03 83 1016.8
20260905172936 25 4 4.8 6.4 0.00 0.03 0.03 83 1016.6
20260905172434 25 355 0.0 4.8 0.00 0.03 0.03 83 1016.7
20260905171930 25 29 3.2 4.8 0.00 0.03 0.03 84 1016.6
20260905171426 25 356 4.8 6.4 0.00 0.03 0.03 81 1016.7
20260905170922 25 6 4.8 12.9 0.00 0.03 0.03 82 1016.8
20260905170418 25 34 6.4 9.7 0.00 0.03 0.03 82 1016.8
20260905165917 26 8 3.2 9.7 0.00 0.03 0.03 83 1016.7
20260905165413 26 52 6.4 12.9 0.00 0.03 0.03 80 1016.7
20260905164909 26 5 3.2 6.4 0.00 0.03 0.03 80 1016.6
20260905164408 26 9 1.6 6.4 0.00 0.03 0.03 80 1016.6
20260905163903 26 143 1.6 6.4 0.00 0.03 0.03 81 1016.6
20260905163400 26 25 4.8 9.7 0.00 0.03 0.03 81 1016.6
20260905162856 26 338 3.2 11.3 0.00 0.03 0.03 82 1016.8
20260905162355 26 14 3.2 4.8 0.00 0.03 0.03 82 1016.5
20260905161850 26 14 0.0 9.7 0.00 0.03 0.03 82 1016.7
20260905161350 26 11 3.2 4.8 0.00 0.03 0.03 82 1016.6
20260905160849 26 4 6.4 11.3 0.00 0.03 0.03 81 1016.6
20260905160343 26 6 1.6 4.8 0.00 0.03 0.03 82 1016.8
20260905155843 26 346 3.2 12.9 0.00 0.03 0.03 80 1016.7
20260905155337 26 357 1.6 6.4 0.00 0.03 0.03 81 1016.6
20260905154836 26 9 6.4 9.7 0.00 0.03 0.03 81 1016.5
20260905154332 26 11 4.8 9.7 0.00 0.03 0.03 80 1016.5
20260905153827 26 7 1.6 6.4 0.00 0.03 0.03 81 1016.5
20260905153324 26 20 1.6 4.8 0.00 0.03 0.03 82 1016.5
20260905152823 25 1 1.6 6.4 0.00 0.03 0.03 83 1016.6
20260905152322 26 317 3.2 6.4 0.00 0.03 0.03 84 1016.5
20260905151818 26 45 1.6 6.4 0.00 0.03 0.03 83 1016.4
20260905151313 25 58 3.2 3.2 0.00 0.03 0.03 84 1016.4
20260905150813 25 359 3.2 9.7 0.00 0.03 0.03 84 1016.2
20260905150314 25 2 4.8 6.4 0.00 0.03 0.03 84 1016.0
20260905145811 25 20 3.2 4.8 0.00 0.03 0.03 85 1015.9
20260905145310 25 30 3.2 6.4 0.00 0.03 0.03 85 1016.0
20260905144809 25 14 1.6 3.2 0.00 0.03 0.03 88 1016.0
20260905144305 24 326 1.6 3.2 0.00 0.03 0.03 88 1015.8
20260905143804 23 4 0.0 3.2 0.00 0.03 0.03 90 1015.9
20260905143258 23 12 0.0 3.2 0.00 0.03 0.03 91 1016.0
20260905142757 23 4 6.4 9.7 0.00 0.03 0.03 90 1016.0
20260905142251 23 0 1.6 6.4 0.00 0.03 0.03 90 1015.7
20260905141748 23 140 3.2 3.2 0.00 0.03 0.03 90 1015.8
20260905141243 23 9 1.6 3.2 0.00 0.03 0.03 91 1015.7
20260905140738 23 63 1.6 3.2 0.00 0.03 0.03 91 1015.8